Regional Weather Roundup
Issued by NWS Lake Charles, LA

Home | Current Version | Previous Version | Text Only | Print | Product List | Glossary On
Versions: 1 2 3 4 5 6 7 8 9 10 11 12 13 14 15 16 17 18 19 20 21 22 23 24 25 26 27 28
000
ASUS44 KLCH 030710
RWRLCH
REGIONAL WEATHER ROUNDUP
NATIONAL WEATHER SERVICE LAKE CHARLES LA
100 AM CST SAT DEC 03 2016

Note: "fair" indicates few or no clouds below 12,000 feet with no
significant weather and/or obstructions to visibility.


ACROSS SOUTHEAST TEXAS

CITY           SKY/WX    TMP DP  RH WIND       PRES   REMARKS
BEAUMONT       CLOUDY    59  45  59 E20G31    30.00
BEAUMONT CITY  NOT AVBL
ORANGE         CLOUDY    58  39  50 E17G24    30.03F
JASPER         RAIN      52  47  86 NE10      30.10F
$$

ACROSS CENTRAL LOUISIANA

CITY           SKY/WX    TMP DP  RH WIND       PRES   REMARKS
LEESVILLE      CLOUDY    49  46  89 VRB7      30.11F
FULLERTON      CLOUDY    50  46  86 VRB3      30.11F
ALEXANDRIA INT LGT RAIN  51  47  86 N7        30.17S
ESLER FIELD    LGT RAIN  50  49  96 CALM      30.19R
DERIDDER       CLOUDY    52  43  70 NE12G18   30.11F
OAKDALE        CLOUDY    51  46  80 NE6       30.11F
OPELOUSAS      CLOUDY    53  44  70 NE8       30.13F
$$

ACROSS SOUTHWEST AND SOUTH CENTRAL LOUISIANA

CITY           SKY/WX    TMP DP  RH WIND       PRES   REMARKS
SULPHUR        CLOUDY    58  43  57 NE15G22   30.05F
LAKE CHARLES   CLOUDY    57  44  62 E16       30.04
CHENNAULT INT  CLOUDY    56  44  65 E14G20    30.06F
CAMERON PHI    CLOUDY    57  46  67 E18G26    30.01F
DEQUINCY       CLOUDY    56  39  52 E7G23     30.06F
JENNINGS       CLOUDY    55  43  62 E16       30.08F
LAFAYETTE      CLOUDY    57  44  62 E8        30.10
NEW IBERIA     CLOUDY    56  45  66 E10       30.11F
ABBEVILLE      NOT AVBL
PATTERSON      CLOUDY   N/A N/A N/A E13       30.12
SALT POINT     NOT AVBL
$$

SELECTED SITES ACROSS THE REGION

CITY           SKY/WX    TMP DP  RH WIND       PRES   REMARKS
HOUSTON BUSH   CLOUDY    54  47  77 NE14      30.00F
HOUSTON HOBBY  LGT RAIN  58  52  80 E17G23    29.97F
GALVESTON      RAIN      66  65  96 NE17G29   29.94F FOG
COLLEGE STAT   CLOUDY    50  49  96 NE10      30.03  FOG
CONROE         CLOUDY    50  47  89 NE8       30.02F
HUNTSVILLE     LGT RAIN  50  46  86 E8        30.05F FOG
LUFKIN         LGT RAIN  47  46  97 NE14G23   30.08F
SHREVEPORT     LGT RAIN  50  45  83 SE9       30.18S
MONROE         LGT RAIN  52  41  66 CALM      30.27R
NATCHEZ MS     CLOUDY    52  39  62 NE5       30.19F
BATON ROUGE    CLOUDY    54  44  69 E8        30.16
N.O. INTL ARPT LGT RAIN  56  50  80 NE7       30.15F
SLIDELL        LGT RAIN  56  40  55 VRB3      30.18
$$

MARINE REPORTS

STATION/POSITION TIME  SKY/WX   TEMP    WIND        PRES    VSBY
                                AIR SEA DIR/SP/G
                 (UTC)          (F)     (DEG/KT/KT) (MB)    (MI)
BUOY 30 S HIGH I 0650            67 69   70/ 21/ 25 1012.9F
WVE H/P(F/S)=  9/ 8

SEA RIM ST PARK  0700            60      80/ 16/ 20 1015.8F
PORT ARTHUR      0648               64   80/ 14/ 21 1016.0F
SABINE PASS N    0648            58 64   70/ 15/ 22 1016.7F
TEXAS POINT      NOT AVBL
CALCASIEU PASS   0648            58 62  100/ 21/ 25   N/A
LK CHARLES BEACH 0648            56 67              1018.0F
MARSH ISLAND     0600            60                   N/A
FRESH WATER LOCK 0648            59 62   80/ 20/ 29 1017.7F
AMERADA PASS     0648            56 61   70/ 11/ 16 1018.9F
$$




USA.gov is the U.S. government's official web portal to all federal, state and local government web resources and services.